QPF
0.00 0.00 0.00 0.00 0.00 0.00 0.00 0.00 0.00 0.00 0.00 0.00 0.00 0.00 0.00 0.00 0.00 0.00 0.00 0.00 0.00 0.00 0.00 0.00 0.00 0.00 0.00 0.00 0.00 0.00 0.00 0.00 0.00 0.00 0.00 0.00 0.00 0.00 0.00 0.01 0.01 0.02 0.01
0.00 0.00 0.00 0.00 0.00 0.00 0.00 0.00 0.00 0.00 0.00 0.00 0.00 0.00 0.00 0.00 0.00 0.00 0.00 0.00 0.00 0.00 0.00 0.00 0.00 0.00 0.00 0.00 0.00 0.00 0.00 0.00 0.00 0.00 0.00 0.00 0.00 0.00 0.00 0.00 0.01 0.01 0.00
0.00 0.00 0.00 0.00 0.00 0.00 0.00 0.00 0.00 0.00 0.00 0.00 0.00 0.00 0.00 0.00 0.00 0.00 0.00 0.00 0.00 0.00 0.00 0.00 0.00 0.00 0.00 0.00 0.00 0.00 0.00 0.00 0.00 0.00 0.00 0.00 0.00 0.00 0.00 0.00 0.00 0.00 0.00
0.00 0.00 0.00 0.00 0.00 0.00 0.00 0.00 0.00 0.00 0.00 0.00 0.00 0.00 0.00 0.00 0.00 0.00 0.00 0.00 0.00 0.00 0.00 0.00 0.00 0.00 0.00 0.00 0.00 0.00 0.00 0.00 0.00 0.00 0.00 0.00 0.00 0.00 0.01 0.01 0.00 0.00 0.00
0.00 0.00 0.00 0.00 0.00 0.00 0.00 0.00 0.00 0.00 0.00 0.00 0.00 0.00 0.00 0.00 0.00 0.00 0.00 0.00 0.00 0.00 0.00 0.00 0.00 0.00 0.00 0.00 0.00 0.00 0.00 0.00 0.00 0.00 0.00 0.00 0.01 0.01 0.01 0.04 0.04 0.03 0.02
0.00 0.00 0.00 0.00 0.00 0.00 0.00 0.00 0.00 0.00 0.00 0.00 0.00 0.00 0.00 0.00 0.00 0.00 0.00 0.00 0.00 0.00 0.00 0.00 0.00 0.00 0.00 0.00 0.00 0.00 0.00 0.00 0.00 0.00 0.00 0.00 0.01 0.01 0.02 0.08 0.10 0.09 0.07
0.00 0.00 0.00 0.00 0.00 0.00 0.00 0.00 0.00 0.00 0.00 0.00 0.00 0.00 0.00 0.00 0.00 0.00 0.00 0.00 0.00 0.00 0.00 0.00 0.00 0.00 0.00 0.00 0.00 0.00 0.00 0.00 0.00 0.00 0.00 0.00 0.00 0.00 0.01 0.07 0.13 0.13 0.11
0.00 0.00 0.00 0.00 0.00 0.00 0.00 0.00 0.00 0.00 0.00 0.00 0.00 0.00 0.00 0.00 0.00 0.00 0.00 0.00 0.00 0.00 0.00 0.00 0.00 0.00 0.00 0.00 0.01 0.00 0.00 0.00 0.00 0.00 0.00 0.00 0.00 0.00 0.00 0.06 0.12 0.13 0.12
0.00 0.00 0.00 0.00 0.00 0.00 0.00 0.00 0.00 0.00 0.00 0.00 0.00 0.00 0.00 0.00 0.00 0.00 0.00 0.00 0.00 0.00 0.00 0.00 0.00 0.00 0.00 0.00 0.00 0.01 0.01 0.01 0.01 0.01 0.00 0.01 0.00 0.00 0.00 0.03 0.08 0.12 0.12
0.00 0.00 0.00 0.00 0.00 0.00 0.00 0.00 0.00 0.00 0.00 0.00 0.00 0.00 0.00 0.00 0.00 0.00 0.00 0.00 0.00 0.01 0.01 0.01 0.01 0.01 0.00 0.00 0.01 0.01 0.01 0.01 0.01 0.01 0.02 0.01 0.02 0.02 0.02 0.02 0.06 0.09 0.12
0.00 0.00 0.00 0.00 0.00 0.00 0.00 0.00 0.00 0.00 0.00 0.00 0.00 0.00 0.00 0.00 0.00 0.00 0.00 0.00 0.00 0.01 0.01 0.01 0.01 0.01 0.01 0.01 0.01 0.01 0.01 0.01 0.00 0.01 0.01 0.01 0.02 0.03 0.04 0.04 0.05 0.07 0.10
0.00 0.00 0.00 0.00 0.00 0.00 0.00 0.00 0.00 0.00 0.00 0.00 0.01 0.01 0.01 0.01 0.00 0.00 0.00 0.00 0.00 0.00 0.01 0.01 0.02 0.02 0.02 0.02 0.04 0.05 0.02 0.01 0.01 0.01 0.01 0.02 0.04 0.07 0.08 0.07 0.07 0.07 0.08
0.00 0.00 0.00 0.00 0.00 0.00 0.00 0.00 0.00 0.00 0.00 0.00 0.01 0.01 0.01 0.01 0.00 0.00 0.00 0.00 0.00 0.00 0.00 0.01 0.03 0.04 0.05 0.06 0.08 0.08 0.05 0.04 0.03 0.02 0.01 0.02 0.05 0.10 0.13 0.10 0.09 0.08 0.07
0.00 0.00 0.00 0.00 0.00 0.00 0.00 0.00 0.00 0.00 0.00 0.00 0.00 0.00 0.01 0.01 0.01 0.01 0.01 0.01 0.00 0.01 0.01 0.02 0.03 0.05 0.08 0.10 0.10 0.09 0.10 0.10 0.07 0.07 0.06 0.03 0.05 0.10 0.16 0.11 0.10 0.10 0.09
0.00 0.00 0.00 0.00 0.00 0.00 0.00 0.00 0.00 0.00 0.00 0.00 0.00 0.00 0.01 0.01 0.02 0.02 0.02 0.02 0.02 0.03 0.03 0.04 0.05 0.06 0.10 0.14 0.12 0.10 0.12 0.12 0.09 0.09 0.07 0.05 0.06 0.10 0.15 0.13 0.10 0.10 0.09
0.00 0.00 0.00 0.00 0.00 0.00 0.00 0.00 0.01 0.01 0.01 0.01 0.01 0.02 0.03 0.04 0.04 0.05 0.06 0.05 0.04 0.06 0.07 0.09 0.11 0.15 0.17 0.17 0.14 0.13 0.12 0.12 0.12 0.11 0.09 0.07 0.06 0.08 0.11 0.13 0.11 0.10 0.09
0.00 0.00 0.01 0.01 0.01 0.01 0.01 0.01 0.01 0.02 0.02 0.02 0.03 0.06 0.06 0.07 0.08 0.09 0.08 0.07 0.08 0.10 0.11 0.12 0.15 0.17 0.16 0.15 0.13 0.13 0.11 0.10 0.10 0.10 0.11 0.10 0.07 0.05 0.05 0.06 0.07 0.07 0.07
0.00 0.01 0.01 0.02 0.02 0.01 0.02 0.02 0.02 0.02 0.02 0.03 0.04 0.08 0.08 0.10 0.12 0.11 0.08 0.08 0.12 0.16 0.18 0.17 0.18 0.20 0.22 0.21 0.17 0.12 0.11 0.11 0.09 0.08 0.07 0.07 0.07 0.05 0.03 0.03 0.03 0.04 0.04
0.01 0.02 0.01 0.01 0.01 0.01 0.02 0.02 0.02 0.02 0.02 0.03 0.05 0.07 0.07 0.08 0.10 0.12 0.10 0.09 0.12 0.16 0.16 0.16 0.19 0.22 0.22 0.23 0.21 0.17 0.14 0.12 0.08 0.06 0.04 0.03 0.04 0.04 0.02 0.02 0.02 0.01 0.01
0.02 0.03 0.02 0.01 0.01 0.01 0.01 0.01 0.01 0.01 0.02 0.03 0.04 0.05 0.06 0.06 0.08 0.11 0.09 0.08 0.12 0.13 0.14 0.17 0.17 0.19 0.19 0.22 0.22 0.18 0.13 0.09 0.07 0.04 0.03 0.02 0.02 0.02 0.01 0.01 0.01 0.00 0.00
0.01 0.01 0.01 0.00 0.00 0.00 0.00 0.00 0.00 0.01 0.01 0.01 0.02 0.02 0.03 0.03 0.04 0.06 0.07 0.08 0.10 0.10 0.11 0.15 0.18 0.16 0.15 0.20 0.22 0.17 0.13 0.10 0.06 0.04 0.03 0.03 0.02 0.01 0.00 0.01 0.01 0.01 0.01
0.00 0.00 0.00 0.00 0.00 0.00 0.00 0.00 0.00 0.00 0.00 0.00 0.00 0.01 0.01 0.01 0.02 0.02 0.02 0.03 0.05 0.07 0.07 0.09 0.12 0.13 0.13 0.18 0.20 0.20 0.13 0.09 0.07 0.05 0.04 0.03 0.02 0.02 0.01 0.01 0.01 0.03 0.02
0.00 0.01 0.00 0.00 0.00 0.00 0.00 0.00 0.00 0.00 0.00 0.00 0.00 0.00 0.00 0.01 0.01 0.01 0.01 0.01 0.02 0.04 0.04 0.06 0.09 0.10 0.10 0.14 0.16 0.17 0.13 0.10 0.09 0.05 0.04 0.04 0.05 0.05 0.05 0.04 0.03 0.03 0.04
0.00 0.00 0.00 0.00 0.00 0.00 0.00 0.00 0.00 0.00 0.00 0.00 0.00 0.00 0.00 0.00 0.00 0.00 0.00 0.00 0.01 0.01 0.02 0.03 0.04 0.07 0.10 0.11 0.12 0.13 0.12 0.11 0.10 0.08 0.07 0.06 0.06 0.07 0.07 0.05 0.03 0.03 0.03
0.00 0.00 0.00 0.00 0.00 0.00 0.00 0.00 0.00 0.00 0.00 0.00 0.00 0.00 0.00 0.00 0.00 0.00 0.00 0.00 0.00 0.00 0.01 0.01 0.02 0.05 0.07 0.09 0.11 0.10 0.09 0.10 0.09 0.10 0.09 0.09 0.09 0.07 0.07 0.06 0.05 0.05 0.05
0.00 0.00 0.00 0.00 0.01 0.01 0.01 0.01 0.01 0.01 0.01 0.00 0.00 0.00 0.00 0.00 0.00 0.00 0.00 0.00 0.00 0.01 0.01 0.01 0.02 0.03 0.05 0.06 0.08 0.08 0.07 0.07 0.07 0.08 0.09 0.10 0.12 0.11 0.10 0.08 0.06 0.06 0.07
MSLP
1010.46 1010.64 1011.01 1011.52 1012.09 1012.64 1013.10 1013.42 1013.61 1013.70 1013.74 1013.80 1013.92 1014.13 1014.41 1014.74 1015.06 1015.34 1015.54 1015.64 1015.66 1015.63 1015.59 1015.56 1015.58 1015.64 1015.75 1015.87 1015.99 1016.08 1016.14 1016.17 1016.18 1016.18 1016.19 1016.24 1016.31 1016.40 1016.51 1016.63 1016.73 1016.83 1016.91
1010.26 1010.56 1011.05 1011.66 1012.32 1012.92 1013.41 1013.73 1013.88 1013.92 1013.91 1013.92 1014.01 1014.20 1014.48 1014.81 1015.14 1015.42 1015.60 1015.68 1015.69 1015.65 1015.60 1015.60 1015.65 1015.77 1015.92 1016.09 1016.24 1016.33 1016.38 1016.38 1016.36 1016.33 1016.33 1016.37 1016.46 1016.57 1016.71 1016.84 1016.95 1017.04 1017.11
1010.10 1010.50 1011.07 1011.76 1012.47 1013.12 1013.62 1013.94 1014.08 1014.10 1014.06 1014.06 1014.13 1014.31 1014.58 1014.90 1015.22 1015.47 1015.62 1015.68 1015.66 1015.62 1015.59 1015.62 1015.72 1015.89 1016.09 1016.29 1016.45 1016.53 1016.54 1016.50 1016.43 1016.37 1016.35 1016.39 1016.49 1016.63 1016.80 1016.95 1017.08 1017.18 1017.24
1010.00 1010.45 1011.08 1011.80 1012.54 1013.20 1013.71 1014.03 1014.18 1014.20 1014.18 1014.18 1014.27 1014.45 1014.72 1015.02 1015.31 1015.52 1015.64 1015.66 1015.63 1015.58 1015.58 1015.65 1015.81 1016.03 1016.27 1016.48 1016.62 1016.67 1016.63 1016.52 1016.40 1016.30 1016.26 1016.30 1016.42 1016.60 1016.80 1016.99 1017.15 1017.26 1017.33
1009.97 1010.45 1011.07 1011.80 1012.53 1013.18 1013.69 1014.02 1014.18 1014.23 1014.24 1014.28 1014.40 1014.60 1014.87 1015.15 1015.40 1015.57 1015.64 1015.64 1015.59 1015.56 1015.59 1015.71 1015.91 1016.17 1016.44 1016.65 1016.76 1016.75 1016.64 1016.46 1016.27 1016.13 1016.07 1016.12 1016.27 1016.49 1016.73 1016.95 1017.14 1017.27 1017.36
1010.01 1010.46 1011.06 1011.75 1012.45 1013.08 1013.57 1013.91 1014.10 1014.20 1014.26 1014.34 1014.50 1014.72 1014.98 1015.25 1015.46 1015.59 1015.63 1015.60 1015.55 1015.53 1015.60 1015.76 1016.00 1016.29 1016.56 1016.75 1016.82 1016.75 1016.57 1016.32 1016.07 1015.89 1015.83 1015.88 1016.06 1016.30 1016.58 1016.84 1017.06 1017.21 1017.32
1010.10 1010.51 1011.06 1011.69 1012.34 1012.93 1013.40 1013.75 1013.97 1014.10 1014.22 1014.35 1014.54 1014.78 1015.04 1015.28 1015.45 1015.54 1015.55 1015.50 1015.45 1015.46 1015.55 1015.75 1016.02 1016.32 1016.59 1016.75 1016.77 1016.64 1016.39 1016.08 1015.79 1015.59 1015.52 1015.59 1015.79 1016.06 1016.37 1016.65 1016.88 1017.05 1017.17
1010.22 1010.57 1011.05 1011.62 1012.21 1012.76 1013.22 1013.56 1013.81 1013.98 1014.13 1014.30 1014.50 1014.74 1014.99 1015.19 1015.33 1015.39 1015.37 1015.31 1015.26 1015.28 1015.39 1015.61 1015.90 1016.20 1016.45 1016.58 1016.55 1016.37 1016.08 1015.74 1015.44 1015.23 1015.16 1015.25 1015.46 1015.76 1016.07 1016.36 1016.60 1016.77 1016.90
1010.34 1010.64 1011.06 1011.57 1012.10 1012.61 1013.05 1013.39 1013.64 1013.84 1014.00 1014.18 1014.38 1014.60 1014.81 1014.98 1015.08 1015.10 1015.05 1014.98 1014.93 1014.96 1015.09 1015.31 1015.59 1015.88 1016.10 1016.20 1016.14 1015.94 1015.64 1015.30 1015.00 1014.81 1014.76 1014.87 1015.09 1015.39 1015.70 1015.98 1016.20 1016.36 1016.49
1010.45 1010.70 1011.07 1011.52 1012.01 1012.49 1012.90 1013.24 1013.49 1013.68 1013.84 1014.01 1014.18 1014.36 1014.52 1014.64 1014.69 1014.68 1014.61 1014.53 1014.48 1014.51 1014.63 1014.84 1015.10 1015.36 1015.56 1015.63 1015.57 1015.37 1015.08 1014.77 1014.50 1014.35 1014.34 1014.46 1014.69 1014.98 1015.27 1015.52 1015.71 1015.85 1015.96
1010.52 1010.74 1011.07 1011.49 1011.94 1012.39 1012.78 1013.10 1013.34 1013.51 1013.65 1013.78 1013.90 1014.02 1014.13 1014.20 1014.22 1014.18 1014.09 1014.01 1013.95 1013.97 1014.07 1014.25 1014.48 1014.71 1014.87 1014.93 1014.87 1014.70 1014.45 1014.20 1013.99 1013.89 1013.91 1014.05 1014.28 1014.54 1014.80 1015.01 1015.17 1015.27 1015.35
1010.54 1010.75 1011.06 1011.45 1011.88 1012.31 1012.68 1012.97 1013.19 1013.33 1013.42 1013.50 1013.57 1013.63 1013.69 1013.72 1013.70 1013.65 1013.56 1013.47 1013.41 1013.40 1013.48 1013.62 1013.80 1013.99 1014.12 1014.18 1014.13 1014.00 1013.82 1013.63 1013.50 1013.45 1013.51 1013.66 1013.88 1014.12 1014.33 1014.50 1014.61 1014.67 1014.73
1010.52 1010.73 1011.03 1011.40 1011.81 1012.22 1012.57 1012.84 1013.02 1013.12 1013.17 1013.18 1013.20 1013.21 1013.23 1013.23 1013.20 1013.15 1013.07 1012.98 1012.91 1012.89 1012.93 1013.02 1013.15 1013.29 1013.40 1013.45 1013.44 1013.36 1013.24 1013.13 1013.07 1013.07 1013.16 1013.32 1013.52 1013.72 1013.89 1014.01 1014.07 1014.10 1014.13
1010.44 1010.65 1010.95 1011.32 1011.72 1012.11 1012.44 1012.68 1012.83 1012.89 1012.88 1012.85 1012.82 1012.79 1012.78 1012.77 1012.75 1012.72 1012.65 1012.58 1012.51 1012.47 1012.47 1012.51 1012.59 1012.69 1012.78 1012.83 1012.84 1012.82 1012.77 1012.73 1012.72 1012.77 1012.87 1013.02 1013.19 1013.35 1013.48 1013.55 1013.58 1013.58 1013.58
1010.31 1010.54 1010.84 1011.21 1011.60 1011.97 1012.28 1012.50 1012.61 1012.63 1012.59 1012.52 1012.45 1012.40 1012.38 1012.38 1012.38 1012.36 1012.33 1012.27 1012.20 1012.14 1012.11 1012.11 1012.14 1012.20 1012.27 1012.33 1012.37 1012.39 1012.40 1012.42 1012.45 1012.52 1012.63 1012.75 1012.88 1013.00 1013.07 1013.11 1013.11 1013.08 1013.07
1010.15 1010.39 1010.70 1011.07 1011.46 1011.82 1012.11 1012.30 1012.39 1012.38 1012.30 1012.20 1012.11 1012.05 1012.03 1012.04 1012.06 1012.08 1012.07 1012.02 1011.95 1011.88 1011.81 1011.77 1011.76 1011.79 1011.85 1011.92 1011.99 1012.06 1012.12 1012.17 1012.23 1012.30 1012.38 1012.47 1012.55 1012.61 1012.65 1012.65 1012.62 1012.58 1012.55
1009.96 1010.22 1010.54 1010.92 1011.30 1011.66 1011.93 1012.11 1012.17 1012.14 1012.04 1011.92 1011.81 1011.74 1011.73 1011.75 1011.79 1011.82 1011.82 1011.78 1011.70 1011.61 1011.51 1011.43 1011.40 1011.41 1011.46 1011.55 1011.65 1011.75 1011.84 1011.92 1011.98 1012.03 1012.08 1012.12 1012.14 1012.16 1012.15 1012.12 1012.07 1012.02 1011.99
1009.78 1010.05 1010.39 1010.77 1011.16 1011.50 1011.77 1011.93 1011.98 1011.93 1011.81 1011.68 1011.56 1011.49 1011.47 1011.49 1011.53 1011.56 1011.56 1011.50 1011.40 1011.28 1011.15 1011.04 1010.98 1010.98 1011.04 1011.14 1011.27 1011.40 1011.51 1011.60 1011.66 1011.69 1011.69 1011.67 1011.64 1011.60 1011.55 1011.49 1011.43 1011.37 1011.33
1009.61 1009.91 1010.25 1010.64 1011.02 1011.37 1011.63 1011.78 1011.82 1011.76 1011.64 1011.50 1011.38 1011.30 1011.26 1011.27 1011.29 1011.30 1011.26 1011.17 1011.03 1010.87 1010.70 1010.56 1010.48 1010.47 1010.54 1010.66 1010.81 1010.97 1011.10 1011.19 1011.24 1011.23 1011.18 1011.11 1011.03 1010.94 1010.85 1010.77 1010.70 1010.64 1010.59
1009.50 1009.80 1010.15 1010.53 1010.91 1011.24 1011.50 1011.65 1011.69 1011.64 1011.53 1011.39 1011.26 1011.17 1011.12 1011.09 1011.08 1011.04 1010.95 1010.81 1010.62 1010.40 1010.19 1010.01 1009.91 1009.89 1009.96 1010.09 1010.26 1010.44 1010.58 1010.68 1010.71 1010.67 1010.59 1010.47 1010.34 1010.21 1010.09 1009.99 1009.91 1009.85 1009.81
1009.45 1009.74 1010.08 1010.44 1010.80 1011.12 1011.37 1011.52 1011.58 1011.54 1011.45 1011.33 1011.21 1011.11 1011.04 1010.98 1010.92 1010.82 1010.67 1010.47 1010.21 1009.94 1009.67 1009.46 1009.32 1009.29 1009.35 1009.48 1009.66 1009.84 1009.99 1010.08 1010.10 1010.05 1009.94 1009.80 1009.64 1009.48 1009.34 1009.22 1009.14 1009.07 1009.04
1009.47 1009.73 1010.03 1010.36 1010.69 1010.99 1011.23 1011.39 1011.46 1011.45 1011.39 1011.30 1011.20 1011.10 1011.02 1010.94 1010.84 1010.69 1010.48 1010.21 1009.89 1009.55 1009.23 1008.97 1008.79 1008.72 1008.76 1008.88 1009.04 1009.22 1009.37 1009.46 1009.48 1009.42 1009.31 1009.15 1008.98 1008.81 1008.67 1008.55 1008.46 1008.40 1008.37
1009.59 1009.79 1010.02 1010.29 1010.57 1010.83 1011.06 1011.22 1011.31 1011.34 1011.32 1011.27 1011.20 1011.13 1011.06 1010.97 1010.84 1010.65 1010.40 1010.08 1009.70 1009.31 1008.94 1008.62 1008.39 1008.26 1008.25 1008.33 1008.46 1008.61 1008.75 1008.84 1008.86 1008.82 1008.72 1008.58 1008.43 1008.27 1008.13 1008.02 1007.95 1007.90 1007.87
1009.79 1009.91 1010.06 1010.24 1010.45 1010.66 1010.86 1011.02 1011.13 1011.19 1011.22 1011.22 1011.20 1011.16 1011.11 1011.02 1010.89 1010.69 1010.41 1010.06 1009.65 1009.22 1008.79 1008.42 1008.12 1007.93 1007.85 1007.86 1007.94 1008.05 1008.16 1008.25 1008.28 1008.27 1008.21 1008.11 1008.00 1007.88 1007.78 1007.69 1007.63 1007.60 1007.60
1010.10 1010.10 1010.15 1010.24 1010.36 1010.51 1010.66 1010.80 1010.92 1011.01 1011.08 1011.12 1011.14 1011.14 1011.11 1011.05 1010.93 1010.74 1010.46 1010.11 1009.69 1009.23 1008.77 1008.33 1007.97 1007.70 1007.52 1007.45 1007.45 1007.51 1007.59 1007.67 1007.73 1007.76 1007.75 1007.73 1007.68 1007.63 1007.58 1007.54 1007.51 1007.51 1007.52
1010.50 1010.39 1010.32 1010.31 1010.34 1010.41 1010.51 1010.62 1010.73 1010.82 1010.90 1010.96 1011.01 1011.03 1011.03 1010.99 1010.89 1010.72 1010.47 1010.13 1009.72 1009.26 1008.77 1008.29 1007.86 1007.50 1007.23 1007.06 1006.98 1006.97 1007.01 1007.08 1007.17 1007.26 1007.33 1007.39 1007.43 1007.46 1007.49 1007.51 1007.53 1007.56 1007.61
Thickness
5844 5839 5823 5819 5815 5812 5809 5806 5803 5799 5796 5792 5789 5786 5783 5781 5778 5776 5774 5772 5770 5769 5767 5765 5763 5761 5760 5758 5757 5755 5754 5753 5752 5751 5750 5749 5748 5747 5747 5746 5747 5748 5744
5848 5838 5823 5818 5814 5811 5808 5805 5802 5798 5795 5792 5789 5786 5783 5780 5778 5776 5773 5772 5770 5768 5766 5765 5763 5761 5759 5757 5756 5754 5753 5752 5751 5750 5750 5749 5747 5746 5746 5746 5746 5749 5744
5846 5836 5823 5818 5814 5810 5807 5804 5801 5798 5794 5791 5788 5785 5782 5779 5777 5775 5773 5771 5769 5768 5766 5763 5762 5760 5758 5756 5754 5753 5751 5750 5750 5749 5750 5755 5750 5746 5745 5744 5744 5743 5742
5844 5835 5825 5817 5813 5809 5806 5803 5800 5796 5793 5790 5787 5784 5781 5779 5776 5774 5772 5770 5769 5767 5765 5763 5761 5759 5757 5755 5753 5751 5750 5749 5749 5749 5754 5757 5754 5747 5744 5743 5742 5742 5741
5841 5834 5825 5816 5812 5808 5805 5801 5798 5795 5792 5788 5785 5782 5780 5778 5776 5774 5772 5770 5768 5766 5764 5762 5760 5758 5756 5754 5752 5751 5750 5749 5748 5749 5756 5755 5754 5747 5744 5743 5742 5741 5740
5839 5833 5824 5815 5811 5807 5803 5800 5797 5794 5790 5787 5784 5782 5779 5777 5775 5773 5771 5769 5767 5766 5764 5762 5760 5758 5756 5754 5752 5751 5750 5749 5749 5755 5757 5754 5754 5748 5745 5743 5742 5741 5740
5839 5834 5823 5814 5809 5806 5802 5799 5796 5792 5789 5787 5784 5781 5778 5776 5774 5772 5770 5769 5767 5765 5763 5762 5760 5758 5756 5754 5753 5751 5750 5750 5751 5758 5758 5756 5754 5749 5746 5744 5743 5742 5741
5838 5833 5822 5812 5808 5804 5801 5797 5794 5791 5788 5785 5782 5780 5778 5775 5773 5772 5770 5768 5766 5765 5763 5761 5760 5758 5756 5755 5753 5752 5751 5750 5754 5759 5759 5758 5755 5750 5747 5745 5744 5743 5742
5837 5831 5822 5814 5807 5802 5799 5795 5792 5789 5786 5783 5781 5778 5776 5774 5772 5771 5769 5768 5766 5765 5763 5762 5760 5759 5757 5755 5754 5753 5752 5751 5753 5759 5761 5760 5757 5751 5748 5746 5746 5745 5744
5832 5828 5822 5816 5810 5804 5799 5793 5790 5786 5784 5781 5778 5776 5774 5772 5771 5770 5769 5767 5766 5764 5763 5762 5760 5759 5758 5756 5755 5754 5753 5752 5756 5761 5762 5761 5757 5752 5750 5748 5747 5746 5745
5825 5823 5820 5816 5809 5804 5801 5796 5789 5785 5782 5778 5777 5774 5772 5773 5775 5773 5771 5768 5765 5763 5762 5761 5760 5759 5758 5758 5756 5755 5754 5757 5763 5764 5763 5761 5756 5753 5751 5750 5749 5748 5747
5818 5818 5816 5813 5807 5803 5800 5796 5790 5788 5784 5780 5779 5777 5774 5774 5773 5773 5771 5767 5764 5762 5761 5760 5759 5758 5758 5761 5762 5757 5759 5761 5763 5764 5764 5760 5756 5753 5751 5750 5750 5749 5748
5818 5815 5813 5809 5804 5801 5797 5794 5790 5787 5784 5780 5777 5774 5771 5770 5770 5770 5770 5768 5765 5762 5762 5763 5761 5761 5762 5763 5762 5761 5761 5762 5763 5763 5763 5760 5756 5754 5752 5751 5751 5750 5749
5816 5813 5811 5806 5799 5794 5792 5790 5786 5783 5780 5778 5775 5771 5770 5768 5767 5767 5766 5766 5765 5765 5763 5762 5762 5762 5761 5760 5760 5759 5758 5757 5758 5758 5758 5756 5754 5753 5752 5751 5751 5750 5750
5812 5810 5807 5801 5796 5790 5786 5783 5781 5779 5778 5775 5770 5769 5766 5765 5764 5764 5763 5761 5761 5761 5760 5758 5759 5759 5758 5757 5756 5756 5755 5755 5755 5755 5755 5753 5752 5751 5751 5750 5750 5750 5750
5810 5807 5804 5797 5792 5786 5782 5778 5776 5775 5772 5770 5768 5766 5763 5761 5761 5759 5758 5757 5757 5756 5756 5755 5755 5754 5753 5753 5752 5752 5751 5752 5752 5751 5751 5751 5750 5750 5749 5749 5748 5749 5749
5809 5806 5799 5794 5790 5783 5779 5775 5774 5772 5770 5767 5765 5762 5759 5758 5756 5755 5754 5754 5753 5752 5750 5750 5750 5749 5748 5748 5747 5747 5747 5747 5748 5747 5746 5746 5746 5747 5748 5747 5746 5747 5747
5804 5799 5796 5792 5786 5780 5775 5771 5771 5769 5766 5764 5761 5758 5756 5754 5752 5751 5751 5752 5750 5748 5747 5745 5744 5743 5742 5741 5742 5742 5743 5743 5743 5743 5743 5742 5742 5744 5746 5745 5745 5745 5745
5799 5794 5789 5785 5780 5776 5772 5768 5766 5763 5760 5759 5757 5755 5753 5750 5749 5748 5748 5748 5746 5744 5743 5743 5742 5738 5737 5736 5736 5737 5738 5739 5739 5740 5740 5740 5738 5739 5740 5741 5742 5743 5744
5793 5788 5783 5778 5774 5770 5767 5764 5761 5758 5757 5755 5753 5750 5747 5746 5745 5743 5744 5744 5742 5741 5739 5738 5735 5734 5733 5732 5732 5734 5735 5736 5736 5737 5737 5738 5737 5737 5737 5738 5740 5743 5743
5785 5779 5775 5771 5767 5763 5761 5758 5754 5753 5752 5750 5749 5746 5743 5741 5740 5739 5739 5738 5737 5736 5735 5734 5732 5730 5729 5728 5724 5725 5729 5733 5734 5734 5735 5735 5736 5736 5735 5735 5736 5739 5742
5776 5772 5768 5764 5762 5758 5755 5751 5748 5746 5746 5745 5743 5740 5738 5737 5735 5736 5733 5733 5733 5730 5729 5728 5726 5724 5725 5723 5717 5715 5717 5724 5729 5733 5733 5731 5732 5733 5733 5734 5734 5735 5736
5768 5764 5762 5758 5754 5751 5748 5747 5743 5740 5740 5740 5738 5736 5734 5731 5730 5728 5727 5726 5725 5724 5724 5722 5719 5717 5716 5717 5715 5709 5708 5714 5723 5729 5730 5729 5728 5728 5729 5730 5730 5731 5731
5759 5758 5754 5750 5747 5744 5742 5740 5737 5733 5732 5732 5731 5731 5728 5726 5724 5723 5721 5720 5719 5719 5717 5716 5717 5713 5710 5709 5710 5709 5709 5712 5708 5715 5722 5724 5724 5723 5723 5724 5726 5727 5727
5750 5748 5746 5742 5739 5737 5735 5732 5729 5729 5729 5730 5727 5724 5722 5723 5720 5718 5716 5714 5713 5712 5711 5709 5707 5706 5705 5704 5704 5703 5703 5704 5705 5703 5708 5714 5716 5718 5719 5718 5719 5720 5721
5739 5738 5737 5733 5730 5729 5727 5726 5723 5721 5720 5719 5718 5717 5718 5719 5717 5715 5711 5709 5707 5706 5704 5702 5701 5701 5700 5699 5698 5699 5699 5700 5703 5703 5704 5706 5708 5710 5712 5712 5712 5713 5714